Regional Weather Roundup
Issued by NWS

Home | Current Version | Previous Version | Graphics & Text | Print | Product List | Glossary On
Versions: 1 2 3 4 5 6 7 8 9 10 11 12 13 14 15 16 17 18 19 20 21 22 23 24 25 26 27 28 29 30 31 32 33 34 35 36 37 38 39 40 41 42 43 44 45 46 47 48 49 50
000
ASUS43 KDTX 211810
RWRMI
MICHIGAN HOURLY REGIONAL WEATHER ROUNDUP
NATIONAL WEATHER SERVICE DETROIT/PONTIAC MI
ISSUED BY NATIONAL WEATHER SERVICE GRAND RAPIDS MI
200 PM EDT MON AUG 21 2017

NOTE: "FAIR" INDICATES FEW OR NO CLOUDS BELOW 12,000 FEET WITH NO
SIGNIFICANT WEATHER AND/OR OBSTRUCTION TO VISIBILITY.

MIZ047>049-052>055-059>063-066>070-074>076-081>083-211900-
SOUTHEAST LOWER MICHIGAN

CITY           SKY/WX    TMP DP  RH WIND       PRES   REMARKS
ADRIAN         MOSUNNY   84  67  56 W8        30.09F
6HR MIN TEMP:  67; 6HR MAX TEMP:  86;

ALMA           PTSUNNY   83  66  55 SW8       30.07S
ANN ARBOR      PTSUNNY   86  67  52 S9        30.08F
BAD AXE        CLOUDY    84  67  57 SW3       30.08R
DETROIT CITY   SUNNY     86  65  49 S9        30.07F
6HR MIN TEMP:  70; 6HR MAX TEMP:  87;

DETROIT        MOSUNNY   86  65  49 SW7       30.08F
6HR MIN TEMP:  71; 6HR MAX TEMP:  87;

FLINT          SUNNY     85  66  53 SW7       30.07S
6HR MIN TEMP:  70; 6HR MAX TEMP:  86;

GROSSE ILE     SUNNY     80  70  71 S7        30.08F
6HR MIN TEMP:  71; 6HR MAX TEMP:  81;

HILLSDALE      CLOUDY    82  70  65 SW6       30.09F
HOWELL         PTSUNNY   84  65  52 S8        30.08S
6HR MIN TEMP:  71; 6HR MAX TEMP:  87;


CITY           SKY/WX    TMP DP  RH WIND       PRES   REMARKS
JACKSON        PTSUNNY   85  68  56 SW9       30.07F
6HR MIN TEMP:  69; 6HR MAX TEMP:  87;

LANSING        PTSUNNY   84  66  54 SW7       30.07S
6HR MIN TEMP:  71; 6HR MAX TEMP:  88;

MASON          PTSUNNY   86  67  52 S7        30.08S
MONROE         PTSUNNY   84  69  61 SE7       30.08S
6HR MIN TEMP:  69; 6HR MAX TEMP:  86;

MT. CLEMENS    MOSUNNY   84  66  54 SE8       30.06F
6HR MIN TEMP:  68; 6HR MAX TEMP:  85;

PONTIAC        MOSUNNY   86  63  45 S7        30.07F
6HR MIN TEMP:  69; 6HR MAX TEMP:  87;

PORT HOPE        N/A     74  70  87 E7        30.05S
6HR MIN TEMP:  69; 6HR MAX TEMP:  82;

PORT HURON     MOSUNNY   86  66  51 S6        30.08S
TRI CITIES     MOSUNNY   84  70  62 SW5       30.07S
6HR MIN TEMP:  69; 6HR MAX TEMP:  85;

YPSILANTI      MOSUNNY   88  69  53 S12       30.08F HX  92
6HR MIN TEMP:  71; 6HR MAX TEMP:  90;

$$
MIZ043>046-050>051-056>058-064>065-071>073-077>080-211900-
SOUTHWEST LOWER MICHIGAN

CITY           SKY/WX    TMP DP  RH WIND       PRES   REMARKS
BATTLE CREEK   MOSUNNY   84  70  62 W5        30.08F
6HR MIN TEMP:  71; 6HR MAX TEMP:  85;

BENTON HARBOR  PTSUNNY   78  69  73 W10       30.08F
6HR MIN TEMP:  72; 6HR MAX TEMP:  81;

BIG RAPIDS     MOSUNNY   81  66  59 S9        30.06F
6HR MIN TEMP:  61; 6HR MAX TEMP:  83;

COLDWATER      PTSUNNY   84  70  61 S6        30.08F
6HR MIN TEMP:  71; 6HR MAX TEMP:  86;

HOLLAND        CLOUDY    78  70  76 W8        30.08F
6HR MIN TEMP:  70; 6HR MAX TEMP:  81;

GRAND RAPIDS   CLOUDY    82  70  66 W9        30.07S
6HR MIN TEMP:  69; 6HR MAX TEMP:  85;

KALAMAZOO      PTSUNNY   84  67  56 NW7       30.07F
6HR MIN TEMP:  72; 6HR MAX TEMP:  87;

MARSHALL       CLOUDY    85  69  58 SW7       30.07F
6HR MIN TEMP:  69; 6HR MAX TEMP:  86;

MOUNT PLEASANT PTSUNNY   87  65  48 SW6       30.06R
6HR MIN TEMP:  67; 6HR MAX TEMP:  88;

MUSKEGON       CLOUDY    77  70  79 SW9       30.07F
6HR MIN TEMP:  75; 6HR MAX TEMP:  80;

STURGIS        CLOUDY    83  71  66 SW10      30.07F
6HR MIN TEMP:  71; 6HR MAX TEMP:  84;

$$
MIZ016>042-211900-
NORTHERN LOWER MICHIGAN

CITY           SKY/WX    TMP DP  RH WIND       PRES   REMARKS
ALPENA         CLOUDY    81  69  67 SW5       30.03F
6HR MIN TEMP:  69; 6HR MAX TEMP:  83;

BEAVER ISLAND  MOSUNNY   76  66  71 NW7       30.03R
6HR MIN TEMP:  68; 6HR MAX TEMP:  81;

BELLAIRE       CLOUDY    80  65  61 S3        30.02F
6HR MIN TEMP:  66; 6HR MAX TEMP:  80;

CADILLAC       CLOUDY    82  62  50 CALM      30.06F
CHARLEVOIX     PTSUNNY   74  69  86 W7        30.05F
6HR MIN TEMP:  70; 6HR MAX TEMP:  79;

GAYLORD        CLOUDY    80  63  55 SW8       30.06F
6HR MIN TEMP:  66; 6HR MAX TEMP:  81; 6HR PCP:  0.01;

HOUGHTON LAKE  CLOUDY    80  63  55 SW3       30.07S
6HR MIN TEMP:  68; 6HR MAX TEMP:  83;

MANISTEE       CLOUDY    75  70  84 W8        30.04S
OSCODA         CLOUDY    84  67  56 SE6       30.03F
6HR MIN TEMP:  67; 6HR MAX TEMP:  87;

PELLSTON       CLOUDY    81  66  60 W6        30.02F
6HR MIN TEMP:  68; 6HR MAX TEMP:  83;

TRAVERSE CITY  CLOUDY    82  65  56 CALM      30.02S
6HR MIN TEMP:  69; 6HR MAX TEMP:  84;

LUDINGTON      CLOUDY    73  69  87 W8        30.04F
6HR MIN TEMP:  64; 6HR MAX TEMP:  80;

$$
MIZ007>008-015-211900-
EASTERN UPPER MICHIGAN

CITY           SKY/WX    TMP DP  RH WIND       PRES   REMARKS
KINROSS        PTSUNNY   78  63  59 W6        30.02F
6HR MIN TEMP:  64; 6HR MAX TEMP:  79;

MACKINAC ISLAN MOSUNNY   74  68  83 W3        30.02F
6HR MIN TEMP:  68; 6HR MAX TEMP:  76;

NEWBERRY       SUNNY     76  59  54 SW9       30.02F
6HR MIN TEMP:  65; 6HR MAX TEMP:  78;

S. S. MARIE    SUNNY     78  59  51 W6        30.02S
6HR MIN TEMP:  66; 6HR MAX TEMP:  79;

$$
MIZ004>006-011>014-085-211900-
CENTRAL UPPER MICHIGAN

CITY           SKY/WX    TMP DP  RH WIND       PRES   REMARKS
MANISTIQUE     SUNNY     74  61  62 SE3       30.01F
6HR MIN TEMP:  67; 6HR MAX TEMP:  78;

ESCANABA       MOSUNNY   73  63  70 SE8       30.00F
6HR MIN TEMP:  69; 6HR MAX TEMP:  79;

MENOMINEE      PTSUNNY   74  60  61 E5        30.02F
6HR MIN TEMP:  67; 6HR MAX TEMP:  77;

SAWYER-GWINN   MOSUNNY   77  46  33 CALM      30.02F
$$
MIZ001>003-009>011-084-211900-
WESTERN UPPER MICHIGAN

CITY           SKY/WX    TMP DP  RH WIND       PRES   REMARKS
IRON MOUNTAIN  CLOUDY    77  58  51 SE5       30.00F
6HR MIN TEMP:  65; 6HR MAX TEMP:  79;

HOUGHTON       MOSUNNY   72  55  55 S5        30.00F
6HR MIN TEMP:  60; 6HR MAX TEMP:  74;

COPPER HARBOR    N/A     65  58  78 N9        30.00F
6HR MIN TEMP:  62; 6HR MAX TEMP:  68;

IRONWOOD       MOSUNNY   73  51  46 W5        30.00F
6HR MIN TEMP:  52; 6HR MAX TEMP:  76;

$$

ABBREVIATIONS USED IN REMARKS
   TC - TEMPERATURE IN CELSIUS
  WCI - WIND CHILL INDEX
   HX - HEAT INDEX
  VSB - VISIBILITY




USA.gov is the U.S. government's official web portal to all federal, state and local government web resources and services.